Location: Earls Croome
(52.0667°N, 2.2000°W)
Time: 00:55:21
(UTC+00:00)

COSMOS 2455 - Pass Details

Date: 24 February 2020
Orbit: 901 x 909 km, 67.2° (Epoch: 06 April)

Event Time Altitude Azimuth Distance (km) Brightness Sun altitude
Exits shadow 05:16:32 - 323° (NW) 3,140 5.4 -17.7°
Reaches altitude 10° 05:18:01 10° 326° (NW) 2,601 5.0 -17.4°
Maximum altitude 05:23:55 53° 43° (NE) 1,111 3.6 -16.5°
Drops below altitude 10° 05:29:48 10° 120° (ESE) 2,592 6.1 -15.6°
Sets 05:32:22 0° 125° (SE) 3,531 6.8 -15.2°
